| time (UTC) | temp F | wind direction | speed knots | gust knots | rain 1hr in | rain 24hr in | rain mn in | humidity % | barometer mb |
| 20260906115018 | 70 | 75 | 2.6 | 4.3 | 0.00 | 0.00 | 0.00 | 85 | 1018.1 |
| 20260906114025 | 70 | 75 | 2.6 | 4.3 | 0.00 | 0.00 | 0.00 | 85 | 1018.0 |
| 20260906113019 | 70 | 72 | 2.6 | 3.5 | 0.00 | 0.00 | 0.00 | 85 | 1017.8 |
| 20260906112019 | 70 | 77 | 2.6 | 4.3 | 0.00 | 0.00 | 0.00 | 84 | 1017.7 |
| 20260906111025 | 70 | 73 | 1.7 | 4.3 | 0.00 | 0.00 | 0.00 | 84 | 1017.6 |
| 20260906110045 | 70 | 78 | 1.7 | 3.5 | 0.00 | 0.00 | 0.00 | 84 | 1017.6 |
| 20260906105025 | 70 | 78 | 1.7 | 2.6 | 0.00 | 0.00 | 0.00 | 84 | 1017.5 |
| 20260906104026 | 70 | 74 | 1.7 | 3.5 | 0.00 | 0.00 | 0.00 | 84 | 1017.3 |
| 20260906103026 | 71 | 65 | 1.7 | 2.6 | 0.00 | 0.00 | 0.00 | 84 | 1017.1 |
| 20260906102026 | 71 | 81 | 1.7 | 3.5 | 0.00 | 0.00 | 0.00 | 84 | 1017.1 |
| 20260906101026 | 71 | 76 | 1.7 | 4.3 | 0.00 | 0.00 | 0.00 | 84 | 1017.1 |
| 20260906100026 | 71 | 69 | 0.9 | 3.5 | 0.00 | 0.00 | 0.00 | 83 | 1017.1 |
| 20260906095026 | 72 | 82 | 1.7 | 2.6 | 0.00 | 0.00 | 0.00 | 83 | 1017.1 |
| 20260906094026 | 72 | 71 | 1.7 | 2.6 | 0.00 | 0.00 | 0.00 | 82 | 1017.0 |
| 20260906093027 | 72 | 71 | 1.7 | 2.6 | 0.00 | 0.00 | 0.00 | 82 | 1017.0 |
| 20260906092027 | 72 | 82 | 1.7 | 2.6 | 0.00 | 0.00 | 0.00 | 81 | 1017.0 |
| 20260906091107 | 72 | 79 | 1.7 | 3.5 | 0.00 | 0.00 | 0.00 | 82 | 1017.0 |
| 20260906090027 | 72 | 69 | 1.7 | 2.6 | 0.00 | 0.00 | 0.00 | 82 | 1016.9 |
| 20260906085027 | 73 | 86 | 0.9 | 1.7 | 0.00 | 0.00 | 0.00 | 81 | 1017.0 |
| 20260906084048 | 73 | 95 | 1.7 | 2.6 | 0.00 | 0.00 | 0.00 | 81 | 1016.9 |
| 20260906083028 | 73 | 87 | 0.9 | 1.7 | 0.00 | 0.00 | 0.00 | 82 | 1016.8 |
| 20260906082028 | 72 | 90 | 0.9 | 2.6 | 0.00 | 0.00 | 0.00 | 82 | 1016.8 |
| 20260906081028 | 73 | 93 | 1.7 | 3.5 | 0.00 | 0.00 | 0.00 | 83 | 1016.9 |
| 20260906080048 | 73 | 78 | 1.7 | 2.6 | 0.00 | 0.00 | 0.00 | 83 | 1016.9 |
| 20260906075049 | 73 | 96 | 1.7 | 2.6 | 0.00 | 0.00 | 0.00 | 83 | 1016.9 |
| 20260906074048 | 73 | 86 | 0.9 | 2.6 | 0.00 | 0.00 | 0.00 | 83 | 1016.8 |
| 20260906073028 | 73 | 87 | 1.7 | 3.5 | 0.00 | 0.00 | 0.00 | 83 | 1016.9 |
| 20260906072029 | 73 | 83 | 0.9 | 1.7 | 0.00 | 0.00 | 0.00 | 83 | 1017.0 |
| 20260906071029 | 73 | 90 | 0.9 | 1.7 | 0.00 | 0.00 | 0.00 | 84 | 1017.0 |
| 20260906070029 | 73 | 72 | 1.7 | 2.6 | 0.00 | 0.00 | 0.00 | 84 | 1016.9 |
| 20260906065029 | 73 | 64 | 1.7 | 4.3 | 0.00 | 0.00 | 0.00 | 84 | 1017.0 |
| 20260906064029 | 73 | 72 | 1.7 | 2.6 | 0.00 | 0.00 | 0.00 | 83 | 1016.9 |
| 20260906063029 | 73 | 70 | 1.7 | 3.5 | 0.00 | 0.00 | 0.00 | 83 | 1016.9 |
| 20260906062030 | 73 | 77 | 1.7 | 2.6 | 0.00 | 0.00 | 0.00 | 83 | 1016.9 |
| 20260906061018 | 73 | 71 | 1.7 | 4.3 | 0.00 | 0.00 | 0.00 | 83 | 1016.9 |
| 20260906060030 | 73 | 86 | 0.9 | 2.6 | 0.00 | 0.00 | 0.00 | 83 | 1017.0 |
| 20260906055030 | 72 | 63 | 1.7 | 4.3 | 0.00 | 0.00 | 0.00 | 84 | 1016.9 |
| 20260906054030 | 72 | 68 | 2.6 | 3.5 | 0.00 | 0.00 | 0.00 | 85 | 1016.9 |
| 20260906053031 | 72 | 67 | 0.9 | 3.5 | 0.00 | 0.00 | 0.00 | 86 | 1016.8 |
| 20260906052019 | 72 | 76 | 1.7 | 4.3 | 0.00 | 0.00 | 0.00 | 86 | 1016.6 |
| 20260906051019 | 72 | 76 | 1.7 | 5.2 | 0.00 | 0.00 | 0.00 | 87 | 1016.5 |
| 20260906050019 | 72 | 77 | 2.6 | 6.1 | 0.00 | 0.00 | 0.00 | 87 | 1016.5 |
| 20260906045020 | 72 | 82 | 2.6 | 7.8 | 0.00 | 0.00 | 0.00 | 87 | 1016.4 |
| 20260906044017 | 72 | 69 | 2.6 | 6.1 | 0.00 | 0.00 | 0.00 | 87 | 1016.4 |
| 20260906043017 | 72 | 65 | 1.7 | 6.1 | 0.00 | 0.00 | 0.00 | 87 | 1016.2 |
| 20260906042020 | 72 | 77 | 3.5 | 6.1 | 0.00 | 0.00 | 0.00 | 87 | 1016.2 |
| 20260906041020 | 72 | 66 | 2.6 | 7.0 | 0.00 | 0.00 | 0.00 | 87 | 1016.1 |
| 20260906040017 | 72 | 67 | 2.6 | 7.0 | 0.00 | 0.00 | 0.00 | 86 | 1016.0 |
| 20260906035018 | 72 | 74 | 2.6 | 6.1 | 0.00 | 0.00 | 0.00 | 86 | 1016.0 |
| 20260906034018 | 72 | 72 | 3.5 | 7.8 | 0.00 | 0.00 | 0.00 | 86 | 1016.0 |
| 20260906033018 | 72 | 70 | 2.6 | 6.1 | 0.00 | 0.00 | 0.00 | 86 | 1016.0 |
| 20260906032018 | 72 | 79 | 2.6 | 6.1 | 0.00 | 0.00 | 0.00 | 86 | 1016.0 |
| 20260906031018 | 72 | 75 | 3.5 | 7.0 | 0.00 | 0.00 | 0.00 | 85 | 1016.0 |
| 20260906030018 | 72 | 69 | 2.6 | 7.0 | 0.00 | 0.00 | 0.00 | 85 | 1016.0 |
| 20260906025019 | 72 | 66 | 2.6 | 6.1 | 0.00 | 0.00 | 0.00 | 84 | 1016.0 |
| 20260906024019 | 72 | 74 | 3.5 | 6.1 | 0.00 | 0.00 | 0.00 | 84 | 1015.9 |
| 20260906023019 | 73 | 73 | 2.6 | 7.8 | 0.00 | 0.00 | 0.00 | 84 | 1016.0 |
| 20260906022019 | 73 | 55 | 2.6 | 5.2 | 0.00 | 0.00 | 0.00 | 83 | 1016.1 |
| 20260906021019 | 73 | 70 | 2.6 | 6.1 | 0.00 | 0.00 | 0.00 | 83 | 1016.2 |
| 20260906020016 | 73 | 70 | 2.6 | 5.2 | 0.00 | 0.00 | 0.00 | 83 | 1016.1 |
| 20260906015019 | 73 | 74 | 2.6 | 4.3 | 0.00 | 0.00 | 0.00 | 82 | 1016.2 |
| 20260906014020 | 73 | 57 | 2.6 | 4.3 | 0.00 | 0.00 | 0.00 | 82 | 1016.1 |
| 20260906013020 | 73 | 58 | 2.6 | 6.1 | 0.00 | 0.00 | 0.00 | 82 | 1016.1 |
| 20260906012040 | 73 | 62 | 1.7 | 5.2 | 0.00 | 0.00 | 0.00 | 82 | 1016.0 |
| 20260906011017 | 73 | 47 | 1.7 | 5.2 | 0.00 | 0.00 | 0.00 | 82 | 1015.8 |
| 20260906010017 | 73 | 73 | 2.6 | 7.0 | 0.00 | 0.00 | 0.00 | 82 | 1015.6 |
| 20260906005017 | 73 | 60 | 2.6 | 7.0 | 0.00 | 0.00 | 0.00 | 83 | 1015.5 |
| 20260906004017 | 73 | 48 | 2.6 | 5.2 | 0.00 | 0.00 | 0.00 | 84 | 1015.4 |
| 20260906003018 | 73 | 64 | 1.7 | 5.2 | 0.00 | 0.00 | 0.00 | 83 | 1015.4 |
| 20260906002019 | 73 | 54 | 2.6 | 7.0 | 0.00 | 0.00 | 0.00 | 83 | 1015.3 |
| 20260906001018 | 73 | 78 | 1.7 | 5.2 | 0.00 | 0.00 | 0.00 | 83 | 1015.4 |
| 20260906000018 | 73 | 79 | 2.6 | 7.0 | 0.00 | 0.00 | 0.00 | 82 | 1015.4 |
| 20260905235018 | 73 | 39 | 2.6 | 7.8 | 0.00 | 0.00 | 0.00 | 82 | 1015.5 |
| 20260905234018 | 73 | 65 | 2.6 | 6.1 | 0.00 | 0.00 | 0.00 | 82 | 1015.5 |
| 20260905233019 | 73 | 40 | 2.6 | 6.1 | 0.00 | 0.00 | 0.00 | 82 | 1015.5 |
| 20260905232019 | 73 | 46 | 2.6 | 7.8 | 0.00 | 0.00 | 0.00 | 82 | 1015.3 |
| 20260905231019 | 73 | 50 | 2.6 | 6.1 | 0.00 | 0.00 | 0.00 | 82 | 1015.2 |
| 20260905230019 | 73 | 54 | 2.6 | 7.0 | 0.00 | 0.00 | 0.00 | 81 | 1015.1 |
| 20260905225019 | 74 | 54 | 2.6 | 8.7 | 0.00 | 0.00 | 0.00 | 81 | 1015.2 |
| 20260905224100 | 74 | 15 | 2.6 | 4.3 | 0.00 | 0.00 | 0.00 | 81 | 1015.3 |
| 20260905223017 | 75 | 61 | 3.5 | 7.8 | 0.00 | 0.00 | 0.00 | 81 | 1015.3 |
| 20260905222018 | 75 | 23 | 2.6 | 6.1 | 0.00 | 0.00 | 0.00 | 80 | 1015.1 |
| 20260905221037 | 76 | 46 | 2.6 | 6.1 | 0.00 | 0.00 | 0.00 | 80 | 1015.1 |
| 20260905220020 | 76 | 80 | 2.6 | 5.2 | 0.00 | 0.00 | 0.00 | 79 | 1015.0 |
| 20260905215017 | 77 | 36 | 2.6 | 7.0 | 0.00 | 0.00 | 0.00 | 78 | 1014.9 |
| 20260905214017 | 77 | 59 | 2.6 | 7.0 | 0.00 | 0.00 | 0.00 | 77 | 1014.7 |
| 20260905213017 | 78 | 51 | 2.6 | 7.8 | 0.00 | 0.00 | 0.00 | 77 | 1014.6 |
| 20260905212018 | 78 | 57 | 2.6 | 7.0 | 0.00 | 0.00 | 0.00 | 77 | 1014.6 |
| 20260905211018 | 78 | 72 | 2.6 | 8.7 | 0.00 | 0.00 | 0.00 | 78 | 1014.7 |
| 20260905210018 | 79 | 44 | 2.6 | 6.1 | 0.00 | 0.00 | 0.00 | 74 | 1014.7 |
| 20260905205019 | 80 | 51 | 3.5 | 9.6 | 0.00 | 0.00 | 0.00 | 72 | 1014.7 |
| 20260905204019 | 79 | 26 | 2.6 | 9.6 | 0.00 | 0.00 | 0.00 | 72 | 1014.6 |
| 20260905203059 | 78 | 22 | 3.5 | 7.8 | 0.00 | 0.00 | 0.00 | 75 | 1014.7 |
| 20260905202019 | 78 | 7 | 2.6 | 7.0 | 0.00 | 0.00 | 0.00 | 76 | 1014.7 |
| 20260905201039 | 79 | 33 | 2.6 | 6.1 | 0.00 | 0.00 | 0.00 | 74 | 1014.8 |
| 20260905200019 | 80 | 52 | 3.5 | 7.8 | 0.00 | 0.00 | 0.00 | 72 | 1014.8 |
| 20260905195039 | 80 | 36 | 2.6 | 7.8 | 0.00 | 0.00 | 0.00 | 71 | 1014.8 |
| 20260905194016 | 79 | 42 | 2.6 | 8.7 | 0.00 | 0.00 | 0.00 | 74 | 1014.9 |
| 20260905193020 | 79 | 49 | 3.5 | 7.8 | 0.00 | 0.00 | 0.00 | 73 | 1014.9 |
| 20260905192020 | 79 | 44 | 2.6 | 10.4 | 0.00 | 0.00 | 0.00 | 75 | 1015.0 |
| 20260905191020 | 79 | 32 | 2.6 | 7.0 | 0.00 | 0.00 | 0.00 | 75 | 1014.9 |
| 20260905190037 | 79 | 29 | 1.7 | 7.0 | 0.00 | 0.00 | 0.00 | 74 | 1014.9 |
| 20260905185017 | 79 | 31 | 2.6 | 8.7 | 0.00 | 0.00 | 0.00 | 75 | 1015.1 |
| 20260905184018 | 78 | 32 | 1.7 | 6.1 | 0.00 | 0.00 | 0.00 | 76 | 1015.0 |
| 20260905183017 | 78 | 36 | 2.6 | 7.0 | 0.00 | 0.00 | 0.00 | 77 | 1015.0 |
| 20260905182018 | 78 | 359 | 1.7 | 5.2 | 0.00 | 0.00 | 0.00 | 77 | 1015.1 |
| 20260905181018 | 78 | 44 | 2.6 | 7.8 | 0.00 | 0.00 | 0.00 | 76 | 1015.0 |
| 20260905180018 | 78 | 21 | 2.6 | 6.1 | 0.00 | 0.00 | 0.00 | 77 | 1014.9 |
| 20260905175018 | 77 | 12 | 1.7 | 6.1 | 0.00 | 0.00 | 0.00 | 78 | 1014.9 |
| 20260905174018 | 77 | 13 | 2.6 | 7.8 | 0.00 | 0.00 | 0.00 | 77 | 1015.0 |
| 20260905173018 | 77 | 3 | 2.6 | 7.0 | 0.00 | 0.00 | 0.00 | 77 | 1014.9 |
| 20260905172039 | 78 | 6 | 2.6 | 7.8 | 0.00 | 0.00 | 0.00 | 77 | 1015.0 |
| 20260905171019 | 77 | 67 | 3.5 | 7.8 | 0.00 | 0.00 | 0.00 | 78 | 1015.0 |
| 20260905170019 | 77 | 5 | 1.7 | 6.1 | 0.00 | 0.00 | 0.00 | 80 | 1015.2 |
| 20260905165019 | 77 | 34 | 1.7 | 4.3 | 0.00 | 0.00 | 0.00 | 80 | 1015.2 |
| 20260905164019 | 77 | 55 | 2.6 | 6.1 | 0.00 | 0.00 | 0.00 | 80 | 1015.2 |
| 20260905163019 | 77 | 61 | 2.6 | 6.1 | 0.00 | 0.00 | 0.00 | 79 | 1015.2 |
| 20260905162040 | 78 | 46 | 3.5 | 7.8 | 0.00 | 0.00 | 0.00 | 78 | 1015.1 |
| 20260905161017 | 78 | 48 | 2.6 | 7.0 | 0.00 | 0.00 | 0.00 | 78 | 1015.0 |
| 20260905160037 | 78 | 66 | 2.6 | 7.8 | 0.00 | 0.00 | 0.00 | 79 | 1014.9 |
| 20260905155017 | 77 | 19 | 1.7 | 6.1 | 0.00 | 0.00 | 0.00 | 81 | 1014.8 |
| 20260905154021 | 77 | 30 | 2.6 | 7.0 | 0.00 | 0.00 | 0.00 | 82 | 1014.8 |
| 20260905153038 | 77 | 28 | 3.5 | 6.1 | 0.00 | 0.00 | 0.00 | 82 | 1014.7 |
| 20260905152020 | 77 | 77 | 2.6 | 6.1 | 0.00 | 0.00 | 0.00 | 82 | 1014.6 |
| 20260905151038 | 77 | 36 | 1.7 | 5.2 | 0.00 | 0.00 | 0.00 | 82 | 1014.5 |
| 20260905150018 | 77 | 52 | 1.7 | 5.2 | 0.00 | 0.00 | 0.00 | 82 | 1014.5 |
| 20260905145019 | 77 | 78 | 3.5 | 7.0 | 0.00 | 0.00 | 0.00 | 81 | 1014.4 |
| 20260905144018 | 77 | 43 | 1.7 | 5.2 | 0.00 | 0.00 | 0.00 | 82 | 1014.3 |
| 20260905143019 | 77 | 40 | 1.7 | 6.1 | 0.00 | 0.00 | 0.00 | 82 | 1014.2 |
| 20260905142018 | 77 | 66 | 1.7 | 5.2 | 0.00 | 0.00 | 0.00 | 83 | 1014.2 |
| 20260905141019 | 76 | 77 | 2.6 | 7.8 | 0.00 | 0.00 | 0.00 | 84 | 1014.1 |
| 20260905140019 | 76 | 56 | 1.7 | 5.2 | 0.00 | 0.00 | 0.00 | 87 | 1014.2 |
| 20260905135019 | 76 | 29 | 1.7 | 6.1 | 0.00 | 0.00 | 0.00 | 87 | 1014.3 |
| 20260905134019 | 76 | 58 | 1.7 | 5.2 | 0.00 | 0.00 | 0.00 | 88 | 1014.4 |
| 20260905133019 | 75 | 41 | 1.7 | 4.3 | 0.00 | 0.00 | 0.00 | 88 | 1014.4 |
| 20260905132017 | 75 | 24 | 1.7 | 4.3 | 0.00 | 0.00 | 0.00 | 89 | 1014.0 |
| 20260905131017 | 75 | 21 | 1.7 | 4.3 | 0.00 | 0.00 | 0.00 | 89 | 1014.0 |
| 20260905130100 | 75 | 63 | 0.9 | 2.6 | 0.00 | 0.00 | 0.00 | 89 | 1014.0 |
| 20260905125020 | 75 | 23 | 1.7 | 3.5 | 0.00 | 0.00 | 0.00 | 89 | 1013.8 |
| 20260905124020 | 75 | 358 | 0.9 | 2.6 | 0.00 | 0.00 | 0.00 | 90 | 1013.6 |
| 20260905123017 | 74 | 311 | 0.0 | 0.9 | 0.00 | 0.00 | 0.00 | 91 | 1013.5 |
| 20260905122037 | 74 | 56 | 0.9 | 2.6 | 0.00 | 0.00 | 0.00 | 92 | 1013.3 |
| 20260905121017 | 74 | 16 | 0.9 | 1.7 | 0.00 | 0.00 | 0.00 | 92 | 1013.4 |
| 20260905120018 | 73 | 36 | 0.0 | 0.9 | 0.00 | 0.00 | 0.00 | 93 | 1013.2 |